Location: Songkhla
(7.2000°N, 100.6000°E)
Time: 20:12:20
(UTC+07:00)

ISS - Pass Details

Date: 23 April 2026
Orbit: 414 x 424 km, 51.6° (Epoch: 19 May)

Event Time Altitude Azimuth Distance (km) Brightness Sun altitude
Rises 01:44:04 0° 248° (WSW) 2,337 - -60.6°
Reaches altitude 10° 01:46:55 10° 275° (W) 1,476 - -60.1°
Maximum altitude 01:48:44 14° 308° (NW) 1,256 - -59.8°
Drops below altitude 10° 01:50:34 10° 342° (NNW) 1,476 - -59.4°
Sets 01:53:25 0° 9° (N) 2,339 - -58.9°
